Regional Weather Roundup
Issued by NWS

Home | Current Version | Previous Version | Graphics & Text | Print | Product List | Glossary On
Versions: 1 2 3 4 5 6 7 8 9 10 11 12 13 14 15 16 17 18 19 20 21 22 23 24 25 26 27 28 29 30 31 32 33 34 35 36 37 38 39 40 41 42 43 44 45 46 47 48 49 50
000
ASUS43 KBIS 231510
RWRND

NORTH DAKOTA REGIONAL WEATHER ROUNDUP
NATIONAL WEATHER SERVICE BISMARCK ND
1000 AM CDT SAT SEP 23 2017

NOTE: "FAIR" INDICATES FEW OR NO CLOUDS BELOW 12,000 FEET WITH NO
SIGNIFICANT WEATHER AND/OR OBSTRUCTIONS TO VISIBILITY.


NDZ001>003-009>011-017-231600-
NORTHWEST NORTH DAKOTA

CITY           SKY/WX    TMP DP  RH WIND       PRES   REMARKS
WILLISTON      CLOUDY    46  42  86 N8        30.13S
MINOT          CLOUDY    48  43  82 NW10      30.13R
MINOT AFB      CLOUDY    46  42  86 N9        30.11R
$$

NDZ018>021-031>035-040>046-231600-
SOUTHWEST NORTH DAKOTA

CITY           SKY/WX    TMP DP  RH WIND       PRES   REMARKS
BISMARCK       CLOUDY    50  47  89 N8        30.09F
DICKINSON      CLOUDY    46  40  79 N6        30.10
GARRISON         N/A     48  43  82 N6        30.11R
HETTINGER ARPT CLOUDY    45  41  86 N7        30.12R
$$

NDZ004>008-012>016-024-026-027-054-231600-
NORTHEAST NORTH DAKOTA

CITY           SKY/WX    TMP DP  RH WIND       PRES   REMARKS
GRAND FORKS    PTSUNNY   54  49  83 N14       30.02R
GRND FRKS AFB  CLOUDY    54  46  75 N9        30.03R
DEVILS LAKE    CLOUDY    49  44  83 N10       30.09R
$$

NDZ022-023-025-028>030-036>039-047>053-231600-
SOUTHEAST NORTH DAKOTA

CITY           SKY/WX    TMP DP  RH WIND       PRES   REMARKS
FARGO          CLOUDY    53  49  86 N8        30.03R
JAMESTOWN      CLOUDY    51  45  79 N9        30.06R
$$




USA.gov is the U.S. government's official web portal to all federal, state and local government web resources and services.